Location: Unspecified
(0.0000°N, 0.0000°E)
Time: 05:05:26
(UTC+01:00)

DELTA 2 R/B (1) - Visible Passes

Search period start: 25 February 2018 00:00
Search period end: 07 March 2018 00:00
Orbit: 791 x 802 km, 39.6° (Epoch: 24 February)

Date Brightness Start Highest point End Pass type
(mag) Time Alt. Az. Time Alt. Az. Time Alt. Az.
25 Feb 6.5 06:05:54 10° SSE 06:06:58 10° SE 06:08:01 10° SE visible
25 Feb 4.6 20:25:54 10° WNW 20:31:10 45° SW 20:36:29 10° SSE visible
26 Feb 4.4 19:54:57 10° WNW 20:00:19 51° SW 20:05:43 10° SSE visible
27 Feb 4.3 06:46:20 10° SW 06:51:50 56° SE 06:57:18 10° ENE visible
28 Feb 4.5 06:15:34 10° SSW 06:20:59 49° SE 06:26:22 10° ENE visible
01 Mar 4.6 05:44:49 10° SSW 05:50:08 43° SE 05:55:25 10° ENE visible
01 Mar 6.4 20:13:01 10° SW 20:14:20 11° SW 20:15:39 10° SSW visible
02 Mar 4.8 05:16:58 27° S 05:19:16 38° SE 05:24:26 10° ENE visible
02 Mar 6.3 19:41:11 10° WSW 19:43:26 12° SW 19:45:42 10° SSW visible
03 Mar 5.0 04:49:04 33° SE 04:49:04 33° SE 04:53:26 10° ENE visible
03 Mar 4.3 06:29:56 11° WSW 06:34:45 34° NW 06:39:46 10° NNE visible
04 Mar 6.1 04:21:03 16° E 04:21:03 16° E 04:22:24 10° ENE visible
04 Mar 4.1 06:01:54 29° W 06:03:53 39° NW 06:09:04 10° NNE visible
05 Mar 4.1 05:33:44 42° NNW 05:33:44 42° NNW 05:38:20 10° NNE visible
06 Mar 5.3 05:05:24 23° NNE 05:05:24 23° NNE 05:07:35 10° NNE visible
